[Iaude] MPEC N02: 2020 MZ3 [a=2.67,e=0.66,i=5.3,H=19.7,PHA]

mpec at marsden.cfa.harvard.edu mpec at marsden.cfa.harvard.edu
Tue Jun 30 21:08:08 EDT 2020


M.P.E.C. 2020-N02                                  Issued 2020 July 1, 01:06 UT

     The Minor Planet Electronic Circulars contain information on unusual
         minor planets and routine data on comets.  They are published
    on behalf of Division F of the International Astronomical Union by the
          Minor Planet Center, Smithsonian Astrophysical Observatory,
                          Cambridge, MA 02138, U.S.A.

             Prepared using the Tamkin Foundation Computer Network

                              MPC at CFA.HARVARD.EDU
            URL https://www.minorplanetcenter.net/    ISSN 1523-6714

                                    2020 MZ3                                    


Observations:
     K20M03Z  C2020 05 30.57932521 05 50.871-12 00 40.70         21.96GVEN002F51
     K20M03Z  C2020 05 30.59348321 05 52.377-12 00 34.09         21.92GVEN002F51
     K20M03Z* C2020 06 29.56529422 11 05.645-07 27 17.11         20.75wUEN002F52
     K20M03Z  C2020 06 29.57591422 11 07.351-07 27 10.15         20.85wUEN002F52
     K20M03Z  C2020 06 29.58652322 11 09.069-07 27 02.87         20.85wUEN002F52
     K20M03Z  C2020 06 29.59710822 11 10.754-07 26 56.02         21.05wUEN002F52
     K20M03Z bC2020 06 30.02378322 12 22.71 -07 22 14.0          21.2 GVEN002L01
     K20M03Z bC2020 06 30.02811022 12 23.55 -07 22 12.0          21.0 GVEN002L01
     K20M03Z bC2020 06 30.03364522 12 24.40 -07 22 08.5          21.0 GVEN002L01
     K20M03Z KC2020 06 30.03989822 12 25.53 -07 22 02.4          20.6 GUEN002I93
     K20M03Z KC2020 06 30.05078122 12 27.35 -07 21 54.9          20.6 GUEN002I93
     K20M03Z KC2020 06 30.06421122 12 29.55 -07 21 46.0          20.2 GUEN002I93
     K20M03Z  C2020 06 30.55112722 13 52.001-07 16 11.32         20.76wUEN002F51
     K20M03Z  C2020 06 30.55652922 13 52.896-07 16 07.58         20.75wUEN002F51
     K20M03Z  C2020 06 30.56194422 13 53.785-07 16 03.93         20.77wUEN002F51

Observer details:
F51 Pan-STARRS 1, Haleakala.  Observers J. Bulger, K. Chambers, T. Lowe, A.
    Schultz, M. Willman.  Measurers S. Chastel, M. Huber, Y. Ramanjooloo, R.
    Wainscoat, R. Weryk, K. Chambers, T. de Boer, L. Denneau, J. Fairlamb, H.
    Flewelling, C.-C. Lin, E. Magnier.  1.8-m Ritchey-Chretien + CCD.
F52 Pan-STARRS 2, Haleakala.  Observers J. Bulger, T. Dukes, T. Lowe, A.
    Schultz, M. Willman.  Measurers K. Chambers, S. Chastel, T. de Boer, L.
    Denneau, J. Fairlamb, H. Flewelling, M. Huber, C.-C. Lin, E. Magnier, Y.
    Ramanjooloo, R. Wainscoat, R. Weryk.  1.8-m Ritchey-Chretien + CCD.
I93 St Pardon de Conques.  Observer F. Losse.  0.40-m f/3.7 reflector + CCD.
L01 Visnjan Observatory, Tican.  Observer K. Korlevic.  1.0-m f/2.9 reflector
    + CCD.

Orbital elements:
2020 MZ3                                            PHA, Earth MOID = 0.0430 AU
Epoch 2020 May 31.0 TT = JDT 2459000.5                  Pan
M 334.63009              (2000.0)            P               Q
n   0.22552400     Peri.  250.29602     +0.91468425     -0.39860123
a   2.6730528      Node   133.13012     +0.39658337     +0.85325392
e   0.6606442      Incl.    5.25617     +0.07793816     +0.33626598
P   4.37           H   19.7           G   0.15           U   8
Residuals in seconds of arc
200530 F51  0.0   0.0     200629 F52  0.3-  0.0     200630 I93  0.1+  0.5+
200530 F51  0.0   0.0     200630 L01  0.5-  0.2-    200630 I93  0.1-  0.4+
200629 F52  0.1-  0.2+    200630 L01  1.4+  1.1-    200630 F51  0.1-  0.0
200629 F52  0.2-  0.1+    200630 L01  0.5+  1.3-    200630 F51  0.0   0.1+
200629 F52  0.0   0.2+    200630 I93  0.3-  0.3+    200630 F51  0.0   0.0

Ephemeris:
2020 MZ3                 a,e,i = 2.67, 0.66, 5                   q = 0.9071
Date    TT    R. A. (2000) Decl.     Delta      r    Elong.  Phase     V
2020 06 01    21 08 27.2 -11 49 34   1.0140  1.7069   114.6    32.7    22.3
...
2020 06 16    21 38 10.2 -09 43 10   0.7789  1.5691   121.3    33.6    21.5
...
2020 06 24    21 56 33.4 -08 26 19   0.6644  1.4950   124.3    34.2    21.1
...
2020 06 30    22 12 18.2 -07 22 19   0.5841  1.4395   126.0    34.9    20.8
2020 07 01    22 15 08.7 -07 10 57   0.5712  1.4303   126.2    35.0    20.7
2020 07 02    22 18 03.6 -06 59 22   0.5585  1.4211   126.4    35.2    20.6
...
2020 07 08    22 37 19.7 -05 44 09   0.4852  1.3659   127.2    36.3    20.3
...
2020 07 16    23 09 26.8 -03 43 16   0.3968  1.2934   126.7    39.1    19.8
...
2020 07 31    00 44 12.2 +01 50 01   0.2704  1.1633   117.1    51.0    19.1

M. P. C. Staff               (C) Copyright 2020 MPC           M.P.E.C. 2020-N02




More information about the Iaude mailing list